Weather in Ilovaisk

Ukraine / Donetsk Region     47°55′29″N   38°11′52″E
temp.,
°C
wind,
m/s
gust,
m/s
humid.,
%
clouds,
%
prec.,
mm/h
press.,
hPa
HPBL,
m
20 may, fri
fri2000:00+8nnw348999 0.0 101766
03:00+9wnw2284100 0.0 101620
06:00+10w378275 0.0 1017172
09:00+15nw696395 0.1 1017916
12:00+18nw68476 0.0 10162081
15:00+17nw695595 0.0 10161346
18:00+16wnw51060100 0.1 1016385
21:00+13wnw2274100 0.1 101712
21 may, sat
sat2100:00+12wsw1181100 0.1 101622
03:00+12w369299 0.1 1015144
06:00+13ssw2991100 0.1 1013361
09:00+15wsw51277100 0.1 1011586
12:00+21wsw91258100 0.0 10091534
15:00+21w91466100 1.1 10081694
18:00+19w71376100 2.1 1007793
21:00+16wsw4888100 2.8 1008346
22 may, sun
sun2200:00+16wsw61396100 1.2 1006762
03:00+14wsw6149562 1.3 1005520
06:00+14wsw6129298 0.0 1004662
09:00+16w71069100 0.1 10031238
12:00+18w81053100 0.2 10011750
15:00+16wnw7126057 0.2 10011271
18:00+15wnw8146622 0.3 10011603
21:00+12nw597581 0.3 1002735
23 may, mon
mon2300:00+11wnw487399 0.0 1002947
03:00+11wnw3582100 0.1 1003585
06:00+10wnw3688100 0.4 1003478
09:00+10nne3386100 0.6 1005465
12:00+8ne5888100 0.3 1006527
15:00+9ne3785100 0.6 1007528
18:00+10ne3878100 0.3 1007451
21:00+9n3577100 0.3 1009117
24 may, tue
tue2400:00+9nne367895 0.1 1010121
03:00+7n34838 0.1 101151
06:00+7nnw368150 0.0 1012162
09:00+12n455640 0.0 10131332
12:00+15n454184 0.0 10132397
15:00+14nnw554997 0.0 10141630
18:00+15nw3552100 0.0 10151297
21:00+12w2358100 0.0 101736